When you browse on this site, cookies collect data to enhance your experience and personalize the content and advertising you see.
Visit our Privacy Policy to learn more. By continuing to use the site, you agree to this use of cookies and data.
  • In Deutschland
  • Länderverzeichnis
  • Für 7 Tage
  • Wassertemperatur
  • Satellitenkarten
  • Wetterkarte
  • Widgets
  • user-avatar
    Anmelden

    Stündliche Wetter Saurimo

    Heute, 25 April, Donnerstag

    Zeit Temperatur Niederschläge Wind Luftdruck Luftfeuchtigkeit
    00:00 +23°C° 0.1 mm 1 m/S 671 mmHg 79%
    01:00 +22°C° 0 mm 1 m/S 671 mmHg 80%
    02:00 +22°C° 0 mm 1 m/S 671 mmHg 82%
    03:00 +22°C° 0 mm 1 m/S 671 mmHg 84%
    04:00 +21°C° 0 mm 1 m/S 671 mmHg 86%
    05:00 +22°C° 0 mm 1 m/S 671 mmHg 85%
    06:00 +23°C° 0 mm 1 m/S 672 mmHg 83%
    07:00 +24°C° 0 mm 1 m/S 672 mmHg 79%
    08:00 +26°C° 0 mm 2 m/S 673 mmHg 71%
    09:00 +28°C° 0 mm 2 m/S 673 mmHg 62%
    10:00 +30°C° 0 mm 2 m/S 673 mmHg 53%
    11:00 +31°C° 0.1 mm 2 m/S 673 mmHg 51%
    12:00 +32°C° 0.1 mm 2 m/S 672 mmHg 48%
    13:00 +34°C° 0.1 mm 2 m/S 672 mmHg 45%
    14:00 +32°C° 0.1 mm 2 m/S 671 mmHg 50%
    15:00 +31°C° 0.1 mm 2 m/S 671 mmHg 54%
    16:00 +30°C° 0.1 mm 2 m/S 670 mmHg 59%
    17:00 +28°C° 0.2 mm 2 m/S 670 mmHg 66%
    18:00 +26°C° 0.2 mm 2 m/S 670 mmHg 74%
    19:00 +24°C° 0.2 mm 1 m/S 670 mmHg 82%
    20:00 +23°C° 0.6 mm 1 m/S 670 mmHg 83%
    21:00 +23°C° 0.6 mm 1 m/S 670 mmHg 85%
    22:00 +22°C° 0.6 mm 1 m/S 671 mmHg 86%
    23:00 +22°C° 0.3 mm 1 m/S 670 mmHg 86%

    Morgen, 26 April, Freitag

    Zeit Temperatur Niederschläge Wind Luftdruck Luftfeuchtigkeit
    00:00 +20°C° 0.3 mm 0 m/S 670 mmHg 86%
    01:00 +20°C° 0.3 mm 0 m/S 670 mmHg 86%
    02:00 +19°C° 0 mm 0 m/S 670 mmHg 86%
    03:00 +21°C° 0 mm 1 m/S 669 mmHg 87%
    04:00 +21°C° 0 mm 1 m/S 669 mmHg 87%
    05:00 +22°C° 0 mm 1 m/S 670 mmHg 86%
    06:00 +22°C° 0 mm 1 m/S 670 mmHg 85%
    07:00 +23°C° 0 mm 1 m/S 670 mmHg 84%
    08:00 +25°C° 0 mm 1 m/S 671 mmHg 74%
    09:00 +28°C° 0 mm 2 m/S 672 mmHg 64%
    10:00 +31°C° 0 mm 2 m/S 672 mmHg 53%
    11:00 +32°C° 0 mm 2 m/S 672 mmHg 49%
    12:00 +32°C° 0 mm 2 m/S 671 mmHg 46%
    13:00 +34°C° 0 mm 2 m/S 671 mmHg 42%
    14:00 +32°C° 0 mm 2 m/S 670 mmHg 47%
    15:00 +31°C° 0 mm 1 m/S 670 mmHg 51%
    16:00 +30°C° 0 mm 1 m/S 670 mmHg 56%
    17:00 +29°C° 0 mm 1 m/S 670 mmHg 60%
    18:00 +27°C° 0 mm 1 m/S 670 mmHg 64%
    19:00 +26°C° 0 mm 1 m/S 670 mmHg 68%
    20:00 +25°C° 0 mm 1 m/S 670 mmHg 70%
    21:00 +25°C° 0 mm 1 m/S 670 mmHg 72%
    22:00 +22°C° 0 mm 0 m/S 670 mmHg 74%
    23:00 +21°C° 0 mm 0 m/S 670 mmHg 76%

    übermorgen, 27 April, Samstag

    Zeit Temperatur Niederschläge Wind Luftdruck Luftfeuchtigkeit
    00:00 +21°C° 0 mm 0 m/S 669 mmHg 79%
    01:00 +21°C° 0 mm 0 m/S 669 mmHg 81%
    02:00 +20°C° 0.1 mm 0 m/S 669 mmHg 83%
    03:00 +20°C° 0.1 mm 0 m/S 669 mmHg 84%
    04:00 +22°C° 0.1 mm 1 m/S 669 mmHg 85%
    05:00 +22°C° 1.1 mm 1 m/S 670 mmHg 86%
    06:00 +20°C° 1.1 mm 0 m/S 670 mmHg 87%
    07:00 +21°C° 1.1 mm 0 m/S 671 mmHg 87%
    08:00 +22°C° 0.7 mm 0 m/S 672 mmHg 82%
    09:00 +24°C° 0.7 mm 0 m/S 672 mmHg 76%
    10:00 +26°C° 0.7 mm 0 m/S 673 mmHg 70%
    11:00 +29°C° 0 mm 1 m/S 672 mmHg 64%
    12:00 +30°C° 0 mm 1 m/S 671 mmHg 58%
    13:00 +31°C° 0 mm 1 m/S 671 mmHg 52%
    14:00 +31°C° 0.2 mm 1 m/S 670 mmHg 55%
    15:00 +30°C° 0.2 mm 1 m/S 670 mmHg 57%
    16:00 +30°C° 0.2 mm 1 m/S 670 mmHg 60%
    17:00 +28°C° 0 mm 1 m/S 670 mmHg 65%
    18:00 +26°C° 0 mm 1 m/S 670 mmHg 71%
    19:00 +22°C° 0 mm 0 m/S 670 mmHg 76%
    20:00 +22°C° 0 mm 0 m/S 670 mmHg 77%
    21:00 +22°C° 0 mm 0 m/S 670 mmHg 79%
    22:00 +21°C° 0 mm 0 m/S 671 mmHg 80%
    23:00 +21°C° 0 mm 0 m/S 670 mmHg 81%

    28 April, Sonntag

    Zeit Temperatur Niederschläge Wind Luftdruck Luftfeuchtigkeit
    00:00 +21°C° 0 mm 0 m/S 670 mmHg 83%
    01:00 +20°C° 0 mm 0 m/S 670 mmHg 84%
    02:00 +22°C° 0 mm 1 m/S 669 mmHg 86%
    03:00 +22°C° 0 mm 1 m/S 669 mmHg 87%
    04:00 +22°C° 0 mm 1 m/S 669 mmHg 88%
    05:00 +22°C° 0 mm 1 m/S 670 mmHg 87%
    06:00 +23°C° 0 mm 1 m/S 670 mmHg 85%
    07:00 +23°C° 0 mm 1 m/S 671 mmHg 84%
    08:00 +25°C° 0 mm 1 m/S 671 mmHg 75%
    09:00 +27°C° 0 mm 2 m/S 672 mmHg 65%
    10:00 +30°C° 0 mm 2 m/S 673 mmHg 55%
    11:00 +31°C° 0 mm 2 m/S 672 mmHg 52%
    12:00 +32°C° 0 mm 2 m/S 671 mmHg 48%
    13:00 +32°C° 0 mm 2 m/S 671 mmHg 45%
    14:00 +31°C° 0 mm 2 m/S 670 mmHg 49%
    15:00 +30°C° 0 mm 2 m/S 670 mmHg 54%
    16:00 +30°C° 0 mm 1 m/S 670 mmHg 59%
    17:00 +28°C° 0 mm 1 m/S 670 mmHg 62%
    18:00 +27°C° 0 mm 1 m/S 670 mmHg 65%
    19:00 +26°C° 0 mm 1 m/S 670 mmHg 68%
    20:00 +25°C° 0 mm 1 m/S 671 mmHg 69%
    21:00 +24°C° 0 mm 1 m/S 671 mmHg 70%
    22:00 +24°C° 0 mm 1 m/S 671 mmHg 71%
    23:00 +23°C° 0 mm 1 m/S 671 mmHg 72%

    29 April, Montag

    Zeit Temperatur Niederschläge Wind Luftdruck Luftfeuchtigkeit
    00:00 +23°C° 0 mm 1 m/S 670 mmHg 74%
    01:00 +22°C° 0 mm 1 m/S 670 mmHg 75%
    02:00 +22°C° 0 mm 1 m/S 670 mmHg 75%
    03:00 +22°C° 0 mm 1 m/S 670 mmHg 76%
    04:00 +22°C° 0 mm 1 m/S 670 mmHg 77%
    05:00 +21°C° 0 mm 2 m/S 670 mmHg 76%
    06:00 +23°C° 0 mm 2 m/S 671 mmHg 74%
    07:00 +24°C° 0 mm 2 m/S 672 mmHg 73%
    08:00 +26°C° 0 mm 3 m/S 672 mmHg 65%
    09:00 +28°C° 0 mm 3 m/S 673 mmHg 58%
    10:00 +30°C° 0 mm 3 m/S 673 mmHg 50%
    11:00 +31°C° 0 mm 3 m/S 672 mmHg 47%
    12:00 +31°C° 0 mm 3 m/S 672 mmHg 45%
    13:00 +33°C° 0 mm 3 m/S 671 mmHg 42%
    14:00 +31°C° 0 mm 2 m/S 671 mmHg 46%
    15:00 +31°C° 0 mm 2 m/S 670 mmHg 50%
    16:00 +30°C° 0 mm 1 m/S 670 mmHg 54%
    17:00 +28°C° 0 mm 1 m/S 670 mmHg 57%
    18:00 +27°C° 0 mm 1 m/S 670 mmHg 61%
    19:00 +25°C° 0 mm 1 m/S 670 mmHg 64%
    20:00 +24°C° 0 mm 1 m/S 671 mmHg 66%
    21:00 +24°C° 0 mm 1 m/S 671 mmHg 68%
    22:00 +23°C° 0 mm 1 m/S 671 mmHg 70%
    23:00 +23°C° 0 mm 1 m/S 670 mmHg 71%

    30 April, Dienstag

    Zeit Temperatur Niederschläge Wind Luftdruck Luftfeuchtigkeit
    00:00 +22°C° 0 mm 1 m/S 670 mmHg 72%
    01:00 +22°C° 0 mm 1 m/S 670 mmHg 73%
    02:00 +21°C° 0 mm 1 m/S 670 mmHg 74%
    03:00 +21°C° 0 mm 1 m/S 670 mmHg 75%
    04:00 +20°C° 0 mm 2 m/S 670 mmHg 77%
    05:00 +20°C° 0 mm 2 m/S 670 mmHg 75%
    06:00 +21°C° 0 mm 2 m/S 671 mmHg 74%
    07:00 +22°C° 0 mm 3 m/S 672 mmHg 72%
    08:00 +25°C° 0 mm 3 m/S 672 mmHg 66%
    09:00 +27°C° 0 mm 3 m/S 673 mmHg 60%
    10:00 +30°C° 0 mm 3 m/S 673 mmHg 55%
    11:00 +31°C° 0 mm 3 m/S 673 mmHg 49%
    12:00 +32°C° 0 mm 2 m/S 672 mmHg 44%
    13:00 +34°C° 0 mm 2 m/S 671 mmHg 39%
    14:00 +32°C° 0 mm 2 m/S 671 mmHg 43%
    15:00 +31°C° 0 mm 2 m/S 670 mmHg 47%
    16:00 +30°C° 0 mm 2 m/S 670 mmHg 51%
    17:00 +28°C° 0 mm 2 m/S 670 mmHg 56%
    18:00 +27°C° 0 mm 2 m/S 670 mmHg 61%
    19:00 +25°C° 0 mm 2 m/S 671 mmHg 66%
    20:00 +24°C° 0 mm 2 m/S 671 mmHg 67%
    21:00 +24°C° 0 mm 2 m/S 671 mmHg 67%
    22:00 +23°C° 0 mm 2 m/S 671 mmHg 68%
    23:00 +23°C° 0 mm 2 m/S 670 mmHg 69%
    Mehr zeigen